BVR525 EDMO-LIRN

Flight info

Callsign BVR525
Flight time N/A
Altitude 39000
Route ATMAX2R ATMAX Y740 XEBIX L607 ELMEM N606 GIRIS DCT DIKEM DCT VIC N503 CHI L612 ANC M736 TEA
Aircraft C750/M-SBDE3FGHRWXY/S

Departure

Time 2026-04-23 19:04
Airport Oberpfaffenhofen Airport (EDMO)

Arrival

Time N/A
Airport Naples International Airport (LIRN)
Time Latitude Longitude Altitude Speed Heading
2026-04-23 18:44 48.08722 11.29438 1921 ft 0 kts 221°
2026-04-23 19:02 48.08721 11.29437 1921 ft 1 kts 221°
2026-04-23 19:02 48.08719 11.29413 1921 ft 4 kts 290°
2026-04-23 19:02 48.08740 11.29365 1921 ft 7 kts 304°
2026-04-23 19:02 48.08788 11.29322 1923 ft 9 kts 355°
2026-04-23 19:03 48.08845 11.29291 1925 ft 9 kts 285°
2026-04-23 19:03 48.08823 11.29248 1925 ft 0 kts 224°
2026-04-23 19:03 48.08792 11.29206 1925 ft 33 kts 222°
2026-04-23 19:03 48.08325 11.28568 1927 ft 138 kts 223°
2026-04-23 19:04 48.07637 11.27633 2274 ft 120 kts 223°
2026-04-23 19:04 48.06926 11.26661 2561 ft 156 kts 224°
2026-04-23 19:04 48.06029 11.25353 2674 ft 208 kts 226°
2026-04-23 19:04 48.04902 11.23775 3505 ft 219 kts 225°
2026-04-23 19:05 48.03782 11.22287 4804 ft 217 kts 225°
2026-04-23 19:05 48.02635 11.20747 5786 ft 225 kts 224°
2026-04-23 19:05 48.01464 11.19173 6824 ft 229 kts 224°
2026-04-23 19:05 48.00269 11.17567 7843 ft 234 kts 224°
2026-04-23 19:06 47.99087 11.15819 8711 ft 247 kts 236°
2026-04-23 19:06 47.98438 11.13314 9023 ft 278 kts 260°
2026-04-23 19:06 47.98063 11.10260 9047 ft 320 kts 263°
2026-04-23 19:06 47.97639 11.06985 10205 ft 312 kts 260°
2026-04-23 19:07 47.97177 11.03994 11816 ft 293 kts 260°
2026-04-23 19:07 47.96723 11.00929 12519 ft 306 kts 262°
2026-04-23 19:07 47.96238 10.97800 13310 ft 315 kts 255°
2026-04-23 19:07 47.95016 10.95010 14063 ft 329 kts 227°
2026-04-23 19:08 47.93115 10.93163 14806 ft 336 kts 201°
2026-04-23 19:08 47.90810 10.92389 15297 ft 350 kts 188°
2026-04-23 19:08 47.88310 10.91910 15437 ft 375 kts 185°
2026-04-23 19:08 47.85633 10.91447 15521 ft 399 kts 186°
2026-04-23 19:09 47.82863 10.90845 16181 ft 402 kts 187°
2026-04-23 19:09 47.80143 10.90223 16902 ft 406 kts 187°
2026-04-23 19:09 47.77328 10.89645 17604 ft 410 kts 186°
2026-04-23 19:09 47.74490 10.89085 18346 ft 414 kts 186°
2026-04-23 19:10 47.71622 10.88486 19012 ft 418 kts 186°
2026-04-23 19:10 47.68725 10.87864 19702 ft 421 kts 186°
2026-04-23 19:10 47.65815 10.87258 20418 ft 424 kts 185°
2026-04-23 19:10 47.62874 10.86659 21090 ft 429 kts 185°
2026-04-23 19:11 47.59898 10.86042 21725 ft 434 kts 185°
2026-04-23 19:11 47.56894 10.85414 22418 ft 438 kts 185°
2026-04-23 19:11 47.53862 10.84786 23088 ft 442 kts 184°
2026-04-23 19:11 47.50835 10.84164 23728 ft 447 kts 184°
2026-04-23 19:12 47.47741 10.83525 24319 ft 450 kts 184°
2026-04-23 19:12 47.44639 10.82883 24899 ft 452 kts 184°
2026-04-23 19:12 47.41509 10.82239 25458 ft 455 kts 184°
2026-04-23 19:12 47.38363 10.81592 26035 ft 458 kts 184°
2026-04-23 19:13 47.35196 10.80942 26576 ft 461 kts 184°
2026-04-23 19:13 47.32005 10.80288 27140 ft 465 kts 183°
2026-04-23 19:13 47.28753 10.79625 27257 ft 480 kts 184°
2026-04-23 19:13 47.25423 10.78944 27256 ft 474 kts 184°
2026-04-23 19:14 47.22212 10.78271 27255 ft 468 kts 184°
2026-04-23 19:14 47.18993 10.77618 27252 ft 466 kts 183°
2026-04-23 19:14 47.15759 10.76971 27706 ft 469 kts 183°
2026-04-23 19:14 47.12525 10.76310 28360 ft 470 kts 183°
2026-04-23 19:15 47.09265 10.75641 28860 ft 476 kts 183°
2026-04-23 19:15 47.05975 10.75104 29273 ft 477 kts 178°
2026-04-23 19:15 47.02656 10.75281 29660 ft 477 kts 169°
2026-04-23 19:15 46.99403 10.76144 30144 ft 474 kts 160°
2026-04-23 19:16 46.96289 10.77661 30660 ft 469 kts 152°
2026-04-23 19:16 46.93234 10.79404 31055 ft 474 kts 153°
2026-04-23 19:16 46.90142 10.81136 31504 ft 477 kts 153°
2026-04-23 19:17 46.83933 10.84617 32344 ft 484 kts 153°
2026-04-23 19:17 46.80734 10.86425 32787 ft 487 kts 153°
2026-04-23 19:17 46.77612 10.88186 33209 ft 489 kts 152°
2026-04-23 19:17 46.74542 10.90299 33592 ft 488 kts 147°
2026-04-23 19:18 46.71492 10.92501 34063 ft 491 kts 148°
2026-04-23 19:18 46.68410 10.94672 34420 ft 493 kts 148°
2026-04-23 19:18 46.65316 10.96848 34668 ft 496 kts 148°
2026-04-23 19:18 46.62202 10.99079 35027 ft 499 kts 148°
2026-04-23 19:19 46.55918 11.03545 35659 ft 507 kts 149°
2026-04-23 19:19 46.52740 11.05783 35958 ft 510 kts 149°
2026-04-23 19:20 46.46314 11.10332 36549 ft 517 kts 149°
2026-04-23 19:20 46.43067 11.12623 36843 ft 520 kts 150°
2026-04-23 19:20 46.39790 11.14926 37075 ft 526 kts 150°
2026-04-23 19:20 46.36493 11.17241 37360 ft 529 kts 150°
2026-04-23 19:21 46.33167 11.19579 37634 ft 532 kts 150°
2026-04-23 19:21 46.26469 11.24274 38117 ft 538 kts 150°
2026-04-23 19:22 46.19664 11.29029 38363 ft 547 kts 151°
2026-04-23 19:22 46.16233 11.31422 38546 ft 549 kts 151°
2026-04-23 19:22 46.09385 11.36185 38935 ft 546 kts 151°
2026-04-23 19:23 46.05981 11.38547 39182 ft 542 kts 151°
2026-04-23 19:23 46.02573 11.40914 39178 ft 541 kts 151°
2026-04-23 19:23 45.99238 11.43222 39182 ft 525 kts 151°
2026-04-23 19:24 45.92639 11.47791 39160 ft 529 kts 151°
2026-04-23 19:24 45.82682 11.54647 39172 ft 530 kts 151°
2026-04-23 19:25 45.69376 11.63777 39133 ft 530 kts 151°
2026-04-23 19:26 45.59881 11.71643 39109 ft 523 kts 139°
2026-04-23 19:27 45.45378 11.87391 39128 ft 526 kts 139°
2026-04-23 19:28 45.33666 11.99908 39140 ft 526 kts 140°
2026-04-23 19:29 45.24855 12.09299 39141 ft 529 kts 140°
2026-04-23 19:30 45.16025 12.18712 39138 ft 529 kts 140°
2026-04-23 19:31 45.07203 12.27999 39132 ft 529 kts 142°
2026-04-23 19:31 45.00836 12.33329 39149 ft 533 kts 147°
2026-04-23 19:32 44.94413 12.38579 39138 ft 534 kts 146°
2026-04-23 19:32 44.87966 12.43907 39146 ft 537 kts 147°
2026-04-23 19:33 44.81494 12.49163 39149 ft 537 kts 146°
2026-04-23 19:33 44.71795 12.57089 39146 ft 537 kts 147°
2026-04-23 19:34 44.65333 12.62351 39154 ft 536 kts 147°
2026-04-23 19:35 44.55644 12.70201 39159 ft 536 kts 147°
2026-04-23 19:35 44.49213 12.75392 39162 ft 536 kts 147°
2026-04-23 19:36 44.42739 12.80574 39170 ft 535 kts 147°
2026-04-23 19:36 44.36277 12.85756 39161 ft 535 kts 147°
2026-04-23 19:37 44.29815 12.90918 39167 ft 535 kts 147°
2026-04-23 19:37 44.23365 12.96093 39170 ft 534 kts 147°
2026-04-23 19:38 44.16913 13.01232 39173 ft 534 kts 147°
2026-04-23 19:38 44.10463 13.06372 39168 ft 534 kts 147°
2026-04-23 19:39 44.04007 13.11494 39167 ft 534 kts 147°